This demonstration page uses our WeatherBlox Daily Observations layout. Learn more.

Left ArrowRight Arrow

34.74481, -87.66753

Hourly Observations for February 13, 2021

Temp ( °F °C ) Dew Point ( °F °C ) Humidity (%) Winds ( mph kmh ) Pressure ( in mb ) Visibility ( mi km ) Precip ( " mm )
12:53 am 00:53 Cloudy with Haze 32 0 26 -3.3 79 79 NNE 7 11 30.12 1020 4 6 0.00 0.00
1:53 am 01:53 Cloudy with Haze 32 0 25 -3.9 75 75 N 8 13 30.11 1020 4 6 0.00 0.00
2:53 am 02:53 Cloudy with Haze 32 0 26 -3.3 79 79 N 5 7 30.08 1019 4 6 0.00 0.00
3:53 am 03:53 Cloudy with Haze 32 0 26 -3.3 79 79 N 6 9 30.09 1019 4 6 0.00 0.00
4:53 am 04:53 Cloudy with Haze 31 -0.6 25 -3.9 79 79 N 10 17 30.08 1019 4 6 0.00 0.00
5:53 am 05:53 Cloudy with Haze 31 -0.6 25 -3.9 79 79 NNE 10 17 30.10 1019 4 6 0.00 0.00
6:53 am 06:53 Cloudy with Haze 31 -0.6 25 -3.9 79 79 NNE 7 11 30.11 1020 5 8 0.00 0.00
7:48 am 07:48 Cloudy with Haze 30 -1 25 -4 80 80 N 7 11 30.14 1021 3 4 0.00 0.00
7:53 am 07:53 Cloudy with Haze 31 -0.6 25 -3.9 79 79 N 9 15 30.12 1020 3 4 0.00 0.00
8:10 am 08:10 Cloudy with Haze 31 -0.6 25 -3.9 79 79 N 8 13 30.15 1021 3 5 0.00 0.00
8:53 am 08:53 Cloudy with Haze 31 -0.6 25 -3.9 79 79 N 5 7 30.13 1020 2 3 0.00 0.00
9:38 am 09:38 Cloudy with Haze 31 -0.6 25 -3.9 79 79 NNW 7 11 30.14 1021 3 5 0.00 0.00
9:53 am 09:53 Cloudy with Haze 31 -0.6 25 -3.9 79 79 N 6 9 30.12 1020 3 5 0.00 0.00
10:53 am 10:53 Cloudy with Haze 33 0.6 26 -3.3 75 75 NNW 7 11 30.12 1020 5 8 0.00 0.00
11:53 am 11:53 Cloudy with Haze 34 1.1 26 -3.3 73 73 VRB 5 7 30.13 1020 6 10 0.00 0.00
12:14 pm 12:14 Cloudy with Haze 33 0.6 25 -3.9 72 72 NNW 8 13 30.15 1021 5 8 0.00 0.00
12:53 pm 12:53 Cloudy with Haze 33 0.6 25 -3.9 72 72 N 9 15 30.11 1020 4 6 0.00 0.00
1:39 pm 13:39 Cloudy with Haze 32 0 25 -3.9 75 75 NNW 10 17 30.12 1020 4 6 0.00 0.00
1:53 pm 13:53 Cloudy with Haze 33 0.6 25 -3.9 72 72 N 8 13 30.09 1019 4 6 0.00 0.00
2:53 pm 14:53 Cloudy with Haze 33 0.6 26 -3.3 75 75 N 6 9 30.08 1019 4 6 0.00 0.00
3:51 pm 15:51 Cloudy with Haze 34 1 25 -4 70 70 VRB 3 6 30.12 1020 5 8 0.00 0.00
3:53 pm 15:53 Cloudy with Haze 33 0.6 25 -3.9 72 72 NNW 5 7 30.10 1019 5 8 0.00 0.00
4:53 pm 16:53 Cloudy with Haze 33 0.6 24 -4.4 70 70 NNW 9 15 30.10 1019 4 6 0.00 0.00
5:53 pm 17:53 Cloudy with Haze 32 0 24 -4.4 73 73 N 9 15 30.12 1020 6 10 0.00 0.00
6:53 pm 18:53 Cloudy with Haze 31 -0.6 23 -5 72 72 NNW 12 19 30.15 1021 6 10 0.00 0.00
7:53 pm 19:53 Cloudy with Haze 30 -1.1 22 -5.6 72 72 N 9 15 30.16 1022 6 10 0.00 0.00
8:30 pm 20:30 Cloudy with Haze 29 -1.7 22 -5.6 75 75 N 8 13 30.19 1022 6 10 0.00 0.00
8:53 pm 20:53 Cloudy with Haze 29 -1.7 22 -5.6 75 75 N 9 15 30.18 1022 6 10 0.00 0.00
9:53 pm 21:53 Cloudy 29 -1.7 21 -6.1 72 72 N 9 15 30.19 1022 7 11 0.00 0.00
10:53 pm 22:53 Cloudy 29 -1.7 21 -6.1 72 72 NNE 10 17 30.17 1022 7 11 0.00 0.00
11:53 pm 23:53 Cloudy with Haze 29 -1.7 21 -6.1 72 72 NNE 8 13 30.17 1022 6 10 0.00 0.00

Powered by AerisWeather